Tracking 20475 objects as of 27-Feb-2020
HD Live streaming from Space Station
objects crossing your sky now

COSMOS 1275 DEB

Track COSMOS 1275 DEB now!
10-day predictions


NORAD ID: 17615
Int'l Code: 1981-053KM
Perigee: 853.2 km
Apogee: 912.9 km
Inclination: 82.9 °
Period: 102.5 minutes
Semi major axis: 7254 km
RCS: 0.0146 m2 (small)
Launch date: June 4, 1981
Source: Commonwealth of Independent States (former USSR) (CIS)
Launch site: PLESETSK MISSILE AND SPACE COMPLEX (PKMTR)

Note: This is SATELLITE DEBRIS
aabbcc
Your satellite tracking list
Your tracking list is empty




NASA's NSSDC Master Catalog

Two Line Element Set (TLE):
1 17615U 81053KJ  20056.95632267 +.00000452 +00000-0 +26828-3 0  9990
2 17615 082.8632 137.3678 0041150 322.6849 161.6963 14.05188984768754
Source of the keplerian elements: AFSPC